Tracking 19634 objects as of 21-May-2019
HD Live streaming from Space Station
objects crossing your sky now

DMSP 5D-2 F9 (USA 29)

Track DMSP 5D-2 F9 (USA 29) now!
10-day predictions
DMSP 5D-2 F9 (USA 29) is classified as:


NORAD ID: 18822
Int'l Code: 1988-006A
Perigee: 802.8 km
Apogee: 813.4 km
Inclination: 98.5 °
Period: 100.9 minutes
Semi major axis: 7179 km
RCS: 3.9585 m2 (large)
Launch date: February 3, 1988
Source: United States (US)
Launch site: AIR FORCE WESTERN TEST RANGE (AFWTR)
aabbcc
Your satellite tracking list
Your tracking list is empty




NASA's NSSDC Master Catalog

Two Line Element Set (TLE):
1 18822U 88006A   19140.60421109 +.00000019 +00000-0 +25190-4 0  9992
2 18822 098.5196 014.9771 0007377 117.3277 242.8655 14.27235928627507
Source of the keplerian elements: AFSPC